sat.trackr.live / text

‹ back to catalog

STARLINK-5463

NORAD 55673 · 2023-021AX

PAYLOAD ACTIVE UNKNOWN

§ Identity

Operator
Country
US
Launch date
2023-02-17
Launch site
AFWTR
Launch vehicle
Mass (kg)
RCS (m²)

Purposes: comms

External: N2YO · Heavens-Above · Gunter

§ Orbital elements

Epoch: 2026-05-24T23:24:24.242112Z

Period
96.11 min
Inclination
69.9988°
Eccentricity
0.0002819
Mean motion
14.98331144 rev/d
Perigee alt
570.1 km
Apogee alt
574.0 km
Semi-major
6,950.2 km
B*
7.9712e-6
RAAN
332.0204°
Arg perigee
265.1641°
Mean anomaly
94.9196°
Rev number
18,071

§ Raw data

STARLINK-54631 55673U 23021AX  26144.97528058  .00000002  00000+0  79712-5 0  99972 55673  69.9988 332.0204 0002819 265.1641  94.9196 14.98331144180719

JSON: /api/v1/satellites/55673 · /tle

For live sub-satellite position, see the globe view (requires WebGL).

§ Visibility from observer

Set your observer location to see the next 7 days of passes ≥ 10°. The values pass through the URL so the page stays shareable.

No JS? Fill the form by hand. The geolocation button needs JavaScript.